Home   Weather   Chibougamau   Past weeks
Flag for Canada

Past Weather in Chibougamau, Quebec, Canada — Yesterday and Last 2 Weeks

Now
45 °F

Partly sunny.


Feels Like: 40 °F
Forecast: 45 / 40 °F
Wind: 8 mph from North

Location: Chibougamau-Chapais

Current Time: Oct 17, 2019 at 3:32:46 pm

Latest Report: Oct 17, 2019 at 2:58 pm


Visibility: 9 mi

Pressure: 29.62 "Hg

Humidity: 87%

Dew Point: 41 °F

Location of ChibougamauLocation

Past Weather in Chibougamau — Graph

°F

Chibougamau Temperature Yesterday

Maximum temperature yesterday: 41 °F (at 2:00 pm)
Minimum temperature yesterday: 34 °F (at 2:00 am)
Average temperature yesterday: 38 °F

High & Low Weather Summary for the Past Weeks

 TemperatureHumidityPressure
High66 °F (Oct 11, 2:00 pm)100% (Oct 5, 3:00 am)30.53 "Hg (Oct 5, 3:00 am)
Low30 °F (Oct 3, 3:00 am)26% (Oct 11, 3:00 pm)29.62 "Hg (Oct 17, 2:31 pm)
Average42 °F82%30.07 "Hg
* Reported Oct 2 2:00 pm — Oct 17 2:31 pm, Chibougamau. Weather by CustomWeather, © 2019

Note: Actual official high and low records may vary slightly from our data, if they occured in-between our weather recording intervals... More about our weather records

Advertising

Chibougamau Weather History for the Previous 24 Hours

Scroll right to see more
 ConditionsComfort  
Time TempWeatherWind HumidityBarometerVisibility
2:31 pm
Thu, Oct 17
45 °FMore clouds than sun.7 mph87%29.62 "Hg9 mi
2:00 pm45 °FMostly cloudy.8 mph87%29.63 "Hg9 mi
1:00 pm43 °FMostly cloudy.8 mph93%29.65 "Hg9 mi
12:00 pm43 °FMostly cloudy.7 mph93%29.64 "Hg9 mi
10:00 am41 °FCloudy.6 mph100%29.66 "Hg9 mi
9:00 am41 °FLight rain. Cloudy.7 mph93%29.68 "Hg9 mi
8:00 am41 °FLight rain. Mostly cloudy.7 mph100%29.67 "Hg9 mi
7:00 am41 °FLight rain. Overcast.9 mph100%29.68 "Hg7 mi
6:00 am41 °FLight rain. Overcast.7 mph100%29.67 "Hg9 mi
5:35 am41 °FLight rain. Fog.7 mph100%29.67 "Hg6 mi
5:12 am41 °FLight rain. Fog.6 mph100%29.67 "Hg5 mi
4:53 am41 °FLight rain. Fog.9 mph93%29.68 "Hg6 mi
4:15 am41 °FLight rain. Fog.8 mph93%29.68 "Hg5 mi
4:00 am41 °FLight rain. Mostly cloudy.9 mph93%29.68 "Hg9 mi
3:00 am41 °FLight rain. Low clouds.10 mph93%29.68 "Hg7 mi
2:00 am41 °FLight rain. Mostly cloudy.10 mph93%29.70 "Hg9 mi
1:04 am41 °FLight rain. Mostly cloudy.10 mph93%29.70 "Hg9 mi
12:58 am41 °FLight rain. Overcast.10 mph93%29.71 "Hg9 mi
12:25 am41 °FLight rain. Overcast.9 mph93%29.71 "Hg9 mi
12:00 am41 °FRain. Overcast.13 mph93%29.71 "Hg7 mi
11:49 pm
Wed, Oct 16
41 °FRain. Mostly cloudy.15 mph93%29.72 "Hg9 mi
11:00 pm41 °FLight rain. Overcast.10 mph93%29.72 "Hg8 mi
10:39 pm41 °FLight rain. Overcast.14 mph93%29.73 "Hg7 mi
10:00 pm39 °FLight rain. Low clouds.15 mph100%29.75 "Hg9 mi
9:54 pm39 °FRain. Overcast.16 mph100%29.76 "Hg9 mi
9:39 pm39 °FRain. Fog.12 mph100%29.76 "Hg6 mi
9:06 pm39 °FLight rain. Mostly cloudy.13 mph100%29.78 "Hg8 mi
8:00 pm39 °FLight rain. Fog.9 mph100%29.80 "Hg6 mi
7:19 pm39 °FLight rain. Mostly cloudy.14 mph100%29.81 "Hg9 mi
7:00 pm39 °FRain. Fog.9 mph100%29.82 "Hg6 mi
6:14 pm39 °FRain. Overcast.9 mph93%29.83 "Hg8 mi
5:43 pm39 °FRain. Cloudy.10 mph93%29.84 "Hg7 mi
5:40 pm39 °FRain. Mostly cloudy.10 mph100%29.84 "Hg8 mi
5:21 pm39 °FRain. Mostly cloudy.9 mph100%29.84 "Hg7 mi
5:00 pm41 °FLight rain. More clouds than sun.10 mph87%29.85 "Hg8 mi
4:00 pm41 °FLight rain. Mostly cloudy.7 mph87%29.87 "Hg9 mi
3:39 pm41 °FLight rain. Mostly cloudy.6 mph87%29.88 "Hg9 mi
3:20 pm41 °FLight rain. Mostly cloudy.6 mph87%29.89 "Hg9 mi
3:00 pm41 °FOvercast.7 mph87%29.90 "Hg9 mi
Weather by CustomWeather, © 2019

See weather overview